Weather Roundup
Issued by NWS Chicago, IL

Home | Current Version | Previous Version | Graphics & Text | Print | Product List | Glossary On
Versions: 1 2 3 4 5 6 7 8 9 10 11 12 13 14 15 16 17 18 19 20 21 22 23 24 25 26 27 28 29 30 31 32 33 34 35 36 37 38 39 40 41 42 43 44 45 46 47 48 49 50
000
NZUS59 KLOT 032108
HRRLOT

CHICAGO AREA WEATHER ROUNDUP
NATIONAL WEATHER SERVICE CHICAGO/ROMEOVILLE IL
400 PM CDT SUN MAY 03 2015

NOTE: "FAIR" INDICATES FEW OR NO CLOUDS BELOW 12,000 FEET WITH NO
SIGNIFICANT WEATHER AND/OR OBSTRUCTIONS TO VISIBILITY.

* THESE STATIONS ARE NOT UNDER NWS QUALITY CONTROL. THEY ALSO MAY NOT
  REPORT WEATHER SUCH AS PRECIPITATION OR FOG.

ILZ005-006-012>014-019>023-032200-
NORTHEAST ILLINOIS

CITY           SKY/WX    TMP DP  RH WIND       PRES   REMARKS
OHARE          CLOUDY    76  47  35 S8        29.90F
MIDWAY         CLOUDY    81  44  27 S9        29.90F HX  80
AURORA         CLOUDY    78  46  32 SW18G26   29.90S
LANSING*       CLOUDY    80  42  26 S14       29.92F
JOLIET*        CLOUDY    83  50  31 S16G22    29.91S HX  81
WAUKEGAN       CLOUDY    74  51  44 SW9       29.90F
DUPAGE AIRPORT CLOUDY    77  49  37 S14G22    29.89F
WHEELING       CLOUDY    75  48  38 S8        29.92F
KANKAKEE*      PTSUNNY   79  47  31 S15G24    29.93F
MORRIS*        PTSUNNY   79  47  32 S18G25    29.89F
LEWIS AIRPORT* CLOUDY    81  44  27 SW21      29.90F HX  80
NORTHERLY IS     N/A     78  41  26 S7          N/A
$$

WIZ051-052-058>065-066-070>072-032200-
SOUTHEAST WISCONSIN

CITY           SKY/WX    TMP DP  RH WIND       PRES   REMARKS
MILWAUKEE      CLOUDY    74  50  42 SW20      29.90S
KENOSHA*       CLOUDY    73  53  49 SW6       29.91F
RACINE*        CLOUDY    74  50  42 SW14G24   29.92S
BURLINGTON     LGT RAIN  65  55  69 W3        29.91F
WEST BEND      PTSUNNY   75  50  41 SW16G29   29.88R
$$

INZ001>003-010>013-019-020-032200-
NORTHWEST INDIANA

CITY           SKY/WX    TMP DP  RH WIND       PRES   REMARKS
GARY*          PTSUNNY   81 N/A N/A S12       29.92F
MICHIGAN CITY* NOT AVBL
RENSSELAER*    NOT AVBL
VALPARAISO     PTSUNNY   78  41  26 S10G22    29.95F
$$

LMZ740>746-032200-
SOUTHERN LAKE MICHIGAN

STATION/POSITION TIME  SKY/WX   TEMP WIND        PRES    VSBY
                                AIR  DIR/SP/G
                 (UTC)          (F)  (DEG/KT/KT) (MB)    (MI)
HARRISON CRIB    2000            74  190/ 15/ 18   N/A
BURNHAM HARBOR   2100            78  220/  4/ 12   N/A
CALUMET HARBOR   2000            78  180/  9/ 15   N/A
BURNS HARBOR     2000            76  220/ 15/ 20 1014.6F
MICHIGAN CITY    2000            77  200/ 12/ 19   N/A
$$

ABBREVIATIONS USED IN REMARKS
   TC - TEMPERATURE IN CELSIUS
  WCI - WIND CHILL INDEX
   HX - HEAT INDEX
  VSB - VISIBILITY
$$



USA.gov is the U.S. government's official web portal to all federal, state and local government web resources and services.